Time,TemperatureF,DewpointF,PressureIn,WindDirection,WindDirectionDegrees,WindSpeedMPH,WindSpeedGustMPH,Humidity,HourlyPrecipIn,Conditions,Clouds,dailyrainin,SoftwareType,DateUTC
2013-08-15 00:11:00,60.0,33.0,-100.00,North,0,0.0,0.0,36,-99.99,,,-99.99,,2013-08-15 06:11:00,
2013-08-15 00:21:00,60.0,34.0,-100.00,North,0,0.0,0.0,37,-99.99,,,-99.99,,2013-08-15 06:21:00,
2013-08-15 00:42:00,61.0,32.0,-100.00,North,0,0.0,0.0,33,-99.99,,,-99.99,,2013-08-15 06:42:00,
2013-08-15 00:52:00,62.0,32.0,-100.00,North,0,0.0,0.0,32,-99.99,,,-99.99,,2013-08-15 06:52:00,
2013-08-15 01:11:00,62.0,32.0,-100.00,North,0,0.0,0.0,32,-99.99,,,-99.99,,2013-08-15 07:11:00,
2013-08-15 01:21:00,61.0,31.0,-100.00,North,0,0.0,0.0,32,-99.99,,,-99.99,,2013-08-15 07:21:00,
2013-08-15 01:41:00,61.0,32.0,-100.00,North,0,0.0,0.0,33,-99.99,,,-99.99,,2013-08-15 07:41:00,
2013-08-15 01:52:00,60.0,31.0,-100.00,North,0,0.0,0.0,33,-99.99,,,-99.99,,2013-08-15 07:52:00,
2013-08-15 02:11:00,60.0,32.0,-100.00,North,0,0.0,0.0,34,-99.99,,,-99.99,,2013-08-15 08:11:00,
2013-08-15 02:21:00,61.0,32.0,-100.00,North,0,0.0,0.0,33,-99.99,,,-99.99,,2013-08-15 08:21:00,
2013-08-15 02:41:00,61.0,31.0,-100.00,North,0,0.0,0.0,32,-99.99,,,-99.99,,2013-08-15 08:41:00,
2013-08-15 02:52:00,61.0,31.0,-100.00,North,0,0.0,0.0,32,-99.99,,,-99.99,,2013-08-15 08:52:00,
2013-08-15 03:11:00,61.0,31.0,-100.00,North,0,0.0,0.0,32,-99.99,,,-99.99,,2013-08-15 09:11:00,
2013-08-15 03:21:00,59.0,30.0,-100.00,North,0,0.0,0.0,33,-99.99,,,-99.99,,2013-08-15 09:21:00,
2013-08-15 03:42:00,59.0,30.0,-100.00,North,0,0.0,0.0,33,-99.99,,,-99.99,,2013-08-15 09:42:00,
2013-08-15 03:53:00,60.0,31.0,-100.00,North,0,0.0,0.0,33,-99.99,,,-99.99,,2013-08-15 09:53:00,
2013-08-15 04:12:00,60.0,31.0,-100.00,North,0,0.0,0.0,33,-99.99,,,-99.99,,2013-08-15 10:12:00,
2013-08-15 04:22:00,60.0,30.0,-100.00,North,0,0.0,0.0,32,-99.99,,,-99.99,,2013-08-15 10:22:00,
2013-08-15 04:42:00,60.0,29.0,-100.00,North,0,0.0,0.0,31,-99.99,,,-99.99,,2013-08-15 10:42:00,
2013-08-15 04:52:00,60.0,29.0,-100.00,North,0,0.0,0.0,31,-99.99,,,-99.99,,2013-08-15 10:52:00,
2013-08-15 05:11:00,61.0,29.0,-100.00,North,0,0.0,0.0,30,-99.99,,,-99.99,,2013-08-15 11:11:00,
2013-08-15 05:22:00,61.0,29.0,-100.00,North,0,0.0,0.0,30,-99.99,,,-99.99,,2013-08-15 11:22:00,
2013-08-15 05:42:00,61.0,29.0,-100.00,North,0,0.0,0.0,30,-99.99,,,-99.99,,2013-08-15 11:42:00,
2013-08-15 05:52:00,60.0,30.0,-100.00,North,0,0.0,0.0,32,-99.99,,,-99.99,,2013-08-15 11:52:00,
2013-08-15 06:11:00,59.0,29.0,-100.00,North,0,0.0,0.0,32,-99.99,,,-99.99,,2013-08-15 12:11:00,
2013-08-15 06:21:00,60.0,30.0,-100.00,North,0,0.0,0.0,32,-99.99,,,-99.99,,2013-08-15 12:21:00,
2013-08-15 06:42:00,60.0,29.0,-100.00,North,0,0.0,0.0,31,-99.99,,,-99.99,,2013-08-15 12:42:00,
2013-08-15 06:52:00,60.0,29.0,-100.00,North,0,0.0,0.0,31,-99.99,,,-99.99,,2013-08-15 12:52:00,
2013-08-15 07:11:00,59.0,28.0,-100.00,North,0,0.0,0.0,30,-99.99,,,-99.99,,2013-08-15 13:11:00,
2013-08-15 07:21:00,60.0,27.0,-100.00,North,0,0.0,0.0,28,-99.99,,,-99.99,,2013-08-15 13:21:00,
2013-08-15 07:42:00,60.0,25.0,-100.00,North,0,0.0,0.0,26,-99.99,,,-99.99,,2013-08-15 13:42:00,
2013-08-15 07:52:00,61.0,24.0,-100.00,North,0,0.0,0.0,24,-99.99,,,-99.99,,2013-08-15 13:52:00,
2013-08-15 08:11:00,61.0,24.0,-100.00,North,0,0.0,0.0,24,-99.99,,,-99.99,,2013-08-15 14:11:00,
2013-08-15 08:22:00,62.0,23.0,-100.00,North,0,0.0,0.0,22,-99.99,,,-99.99,,2013-08-15 14:22:00,
2013-08-15 08:43:00,63.0,22.0,-100.00,North,0,0.0,0.0,21,-99.99,,,-99.99,,2013-08-15 14:43:00,
2013-08-15 08:55:00,63.0,22.0,-100.00,North,0,0.0,0.0,21,-99.99,,,-99.99,,2013-08-15 14:55:00,
2013-08-15 09:23:00,65.0,24.0,-100.00,North,0,0.0,0.0,21,-99.99,,,-99.99,,2013-08-15 15:23:00,
2013-08-15 09:43:00,66.0,24.0,-100.00,North,0,0.0,0.0,20,-99.99,,,-99.99,,2013-08-15 15:43:00,
2013-08-15 09:54:00,67.0,26.0,-100.00,North,0,0.0,0.0,21,-99.99,,,-99.99,,2013-08-15 15:54:00,
2013-08-15 10:13:00,67.0,30.0,-100.00,North,0,0.0,0.0,25,-99.99,,,-99.99,,2013-08-15 16:13:00,
2013-08-15 10:26:00,69.0,33.0,-100.00,North,0,0.0,0.0,26,-99.99,,,-99.99,,2013-08-15 16:26:00,
2013-08-15 10:44:00,68.0,32.0,-100.00,North,0,0.0,0.0,26,-99.99,,,-99.99,,2013-08-15 16:44:00,
2013-08-15 10:55:00,69.0,33.0,-100.00,North,0,0.0,0.0,26,-99.99,,,-99.99,,2013-08-15 16:55:00,
2013-08-15 11:18:00,70.0,35.0,-100.00,North,0,0.0,0.0,28,-99.99,,,-99.99,,2013-08-15 17:18:00,
2013-08-15 11:30:00,69.0,-99.9,-100.00,North,0,0.0,0.0,27,-99.99,,,-99.99,,2013-08-15 17:30:00,
2013-08-15 12:00:00,-999.0,-99.9,-100.00,North,0,0.0,0.0,-999,-99.99,,,-99.99,,2013-08-15 18:00:00,
2013-08-15 12:23:00,72.0,33.0,-100.00,North,0,0.0,0.0,24,-99.99,,,-99.99,,2013-08-15 18:23:00,
2013-08-15 12:34:00,-999.0,-99.9,-100.00,North,0,0.0,0.0,-999,-99.99,,,-99.99,,2013-08-15 18:34:00,
2013-08-15 12:40:00,-999.0,-99.9,-100.00,North,0,0.0,0.0,23,-99.99,,,-99.99,,2013-08-15 18:40:00,
2013-08-15 12:49:00,71.0,31.0,-100.00,North,0,0.0,0.0,23,-99.99,,,-99.99,,2013-08-15 18:49:00,
2013-08-15 13:06:00,-999.0,-99.9,-100.00,North,0,0.0,0.0,-999,-99.99,,,-99.99,,2013-08-15 19:06:00,
2013-08-15 13:17:00,75.0,31.0,-100.00,North,0,0.0,0.0,20,-99.99,,,-99.99,,2013-08-15 19:17:00,
2013-08-15 13:34:00,-999.0,-99.9,-100.00,North,0,0.0,0.0,-999,-99.99,,,-99.99,,2013-08-15 19:34:00,
2013-08-15 13:49:00,75.0,27.0,-100.00,North,0,0.0,0.0,17,-99.99,,,-99.99,,2013-08-15 19:49:00,
2013-08-15 14:09:00,74.0,26.0,-100.00,North,0,0.0,0.0,17,-99.99,,,-99.99,,2013-08-15 20:09:00,
2013-08-15 14:27:00,73.0,26.0,-100.00,North,0,0.0,0.0,17,-99.99,,,-99.99,,2013-08-15 20:27:00,
2013-08-15 14:44:00,72.0,25.0,-100.00,North,0,0.0,0.0,17,-99.99,,,-99.99,,2013-08-15 20:44:00,
2013-08-15 14:57:00,74.0,25.0,-100.00,North,0,0.0,0.0,16,-99.99,,,-99.99,,2013-08-15 20:57:00,
2013-08-15 15:17:00,75.0,27.0,-100.00,North,0,0.0,0.0,17,-99.99,,,-99.99,,2013-08-15 21:17:00,
2013-08-15 15:49:00,75.0,27.0,-100.00,North,0,0.0,0.0,17,-99.99,,,-99.99,,2013-08-15 21:49:00,
2013-08-15 15:57:00,78.0,30.0,-100.00,North,0,0.0,0.0,17,-99.99,,,-99.99,,2013-08-15 21:57:00,
2013-08-15 16:17:00,76.0,28.0,-100.00,North,0,0.0,0.0,17,-99.99,,,-99.99,,2013-08-15 22:17:00,
2013-08-15 16:29:00,76.0,28.0,-100.00,North,0,0.0,0.0,17,-99.99,,,-99.99,,2013-08-15 22:29:00,
2013-08-15 16:49:00,77.0,29.0,-100.00,North,0,0.0,0.0,17,-99.99,,,-99.99,,2013-08-15 22:49:00,
2013-08-15 16:58:00,76.0,29.0,-100.00,North,0,0.0,0.0,18,-99.99,,,-99.99,,2013-08-15 22:58:00,
2013-08-15 17:16:00,76.0,29.0,-100.00,North,0,0.0,0.0,18,-99.99,,,-99.99,,2013-08-15 23:16:00,
2013-08-15 17:34:00,-999.0,-99.9,-100.00,North,0,0.0,0.0,18,-99.99,,,-99.99,,2013-08-15 23:34:00,
2013-08-15 17:48:00,76.0,29.0,-100.00,North,0,0.0,0.0,18,-99.99,,,-99.99,,2013-08-15 23:48:00,
2013-08-15 17:55:00,75.0,29.0,-100.00,North,0,0.0,0.0,18,-99.99,,,-99.99,,2013-08-15 23:55:00,
2013-08-15 18:24:00,75.0,27.0,-100.00,North,0,0.0,0.0,17,-99.99,,,-99.99,,2013-08-16 00:24:00,
2013-08-15 18:46:00,76.0,28.0,-100.00,North,0,0.0,0.0,17,-99.99,,,-99.99,,2013-08-16 00:46:00,
2013-08-15 18:52:00,74.0,28.0,-100.00,North,0,0.0,0.0,18,-99.99,,,-99.99,,2013-08-16 00:52:00,
2013-08-15 19:17:00,73.0,28.0,-100.00,North,0,0.0,0.0,19,-99.99,,,-99.99,,2013-08-16 01:17:00,
2013-08-15 19:26:00,72.0,30.0,-100.00,North,0,0.0,0.0,21,-99.99,,,-99.99,,2013-08-16 01:26:00,
2013-08-15 19:42:00,-999.0,-99.9,-100.00,North,0,0.0,-999.0,-999,-99.99,,,-99.99,,2013-08-16 01:42:00,
2013-08-15 19:54:00,70.0,29.0,-100.00,North,0,0.0,0.0,22,-99.99,,,-99.99,,2013-08-16 01:54:00,
2013-08-15 20:12:00,69.0,29.0,-100.00,North,0,0.0,0.0,22,-99.99,,,-99.99,,2013-08-16 02:12:00,
2013-08-15 20:21:00,68.0,28.0,-100.00,North,0,0.0,0.0,22,-99.99,,,-99.99,,2013-08-16 02:21:00,
2013-08-15 20:43:00,67.0,27.0,-100.00,North,0,0.0,0.0,22,-99.99,,,-99.99,,2013-08-16 02:43:00,
2013-08-15 20:52:00,66.0,26.0,-100.00,North,0,0.0,0.0,22,-99.99,,,-99.99,,2013-08-16 02:52:00,
2013-08-15 21:11:00,66.0,25.0,-100.00,North,0,0.0,0.0,21,-99.99,,,-99.99,,2013-08-16 03:11:00,
2013-08-15 21:21:00,66.0,25.0,-100.00,North,0,0.0,0.0,21,-99.99,,,-99.99,,2013-08-16 03:21:00,
2013-08-15 21:43:00,65.0,23.0,-100.00,North,0,0.0,0.0,20,-99.99,,,-99.99,,2013-08-16 03:43:00,
2013-08-15 21:53:00,65.0,23.0,-100.00,North,0,0.0,0.0,20,-99.99,,,-99.99,,2013-08-16 03:53:00,
2013-08-15 22:13:00,65.0,20.0,-100.00,North,0,0.0,0.0,18,-99.99,,,-99.99,,2013-08-16 04:13:00,
2013-08-15 22:23:00,65.0,20.0,-100.00,North,0,0.0,0.0,18,-99.99,,,-99.99,,2013-08-16 04:23:00,
2013-08-15 22:42:00,65.0,22.0,-100.00,North,0,0.0,0.0,19,-99.99,,,-99.99,,2013-08-16 04:42:00,
2013-08-15 22:53:00,65.0,20.0,-100.00,North,0,0.0,0.0,18,-99.99,,,-99.99,,2013-08-16 04:53:00,
2013-08-15 23:11:00,66.0,19.0,-100.00,North,0,0.0,0.0,16,-99.99,,,-99.99,,2013-08-16 05:11:00,
2013-08-15 23:21:00,66.0,19.0,-100.00,North,0,0.0,0.0,16,-99.99,,,-99.99,,2013-08-16 05:21:00,
2013-08-15 23:42:00,65.0,19.0,-100.00,North,0,0.0,0.0,17,-99.99,,,-99.99,,2013-08-16 05:42:00,